Location: Breux
(46.3269°N, 3.2993°E)
Time: 18:27:08
(UTC+00:00)

Cosmos-2242 - Pass Details

Date: 09 April 2020
Orbit: 590 x 618 km, 82.5° (Epoch: 31 May)

Event Time Altitude Azimuth Distance (km) Brightness Sun altitude
Exits shadow 21:45:27 41° 307° (NW) 893 4.2 -29.2°
Drops below altitude 10° 21:49:02 10° 357° (N) 1,978 6.3 -29.5°
Sets 21:51:23 0° 4° (N) 2,891 7.2 -29.7°
